• In Hungary
  • List of Countries
  • For 7 days
  • Water Temperature
  • Satellite Maps
  • Weather Map
  • News
  • Weather Widgets
  • user-avatar
    Login

    Hourly Weather Brisbane

    Today, 18 November, Saturday

    Time Temperature Precipitation Wind Pressure Humidity
    00:00 +20°C° 0 mm 2 mps 761 mmHg 73%
    01:00 +20°C° 0 mm 2 mps 761 mmHg 75%
    02:00 +20°C° 0.2 mm 2 mps 760 mmHg 77%
    03:00 +19°C° 0.2 mm 2 mps 760 mmHg 78%
    04:00 +20°C° 0 mm 2 mps 760 mmHg 81%
    05:00 +20°C° 0.7 mm 3 mps 761 mmHg 79%
    06:00 +21°C° 0.7 mm 3 mps 761 mmHg 78%
    07:00 +22°C° 0.7 mm 3 mps 761 mmHg 77%
    08:00 +22°C° 1.3 mm 3 mps 761 mmHg 77%
    09:00 +22°C° 1.3 mm 3 mps 761 mmHg 77%
    10:00 +23°C° 0 mm 2 mps 761 mmHg 79%
    11:00 +22°C° 1.6 mm 3 mps 761 mmHg 79%
    12:00 +21°C° 1.6 mm 3 mps 761 mmHg 80%
    13:00 +21°C° 1.6 mm 3 mps 760 mmHg 81%
    14:00 +21°C° 1.9 mm 3 mps 760 mmHg 83%
    15:00 +20°C° 1.9 mm 3 mps 760 mmHg 85%
    16:00 +20°C° 1.9 mm 3 mps 760 mmHg 86%
    17:00 +20°C° 1.6 mm 2 mps 761 mmHg 87%
    18:00 +19°C° 1.6 mm 2 mps 761 mmHg 87%
    19:00 +19°C° 1.6 mm 2 mps 761 mmHg 87%
    20:00 +19°C° 0.3 mm 2 mps 761 mmHg 86%
    21:00 +19°C° 0.3 mm 2 mps 761 mmHg 86%
    22:00 +19°C° 0.3 mm 2 mps 761 mmHg 86%
    23:00 +18°C° 0.1 mm 2 mps 761 mmHg 86%

    Tomorrow, 19 November, Sunday

    Time Temperature Precipitation Wind Pressure Humidity
    00:00 +18°C° 0.1 mm 2 mps 761 mmHg 86%
    01:00 +18°C° 0.1 mm 2 mps 760 mmHg 86%
    02:00 +18°C° 0 mm 2 mps 760 mmHg 87%
    03:00 +17°C° 0 mm 2 mps 760 mmHg 87%
    04:00 +17°C° 0 mm 2 mps 760 mmHg 88%
    05:00 +18°C° 0.2 mm 2 mps 760 mmHg 85%
    06:00 +19°C° 0.2 mm 3 mps 761 mmHg 82%
    07:00 +20°C° 0.2 mm 3 mps 761 mmHg 80%
    08:00 +22°C° 0.7 mm 4 mps 761 mmHg 74%
    09:00 +23°C° 0.7 mm 4 mps 761 mmHg 69%
    10:00 +25°C° 0.7 mm 4 mps 761 mmHg 64%
    11:00 +25°C° 0.5 mm 5 mps 761 mmHg 61%
    12:00 +26°C° 0.5 mm 5 mps 761 mmHg 58%
    13:00 +26°C° 0.5 mm 5 mps 761 mmHg 55%
    14:00 +26°C° 0.1 mm 5 mps 761 mmHg 56%
    15:00 +26°C° 0.1 mm 5 mps 761 mmHg 57%
    16:00 +25°C° 0.1 mm 5 mps 760 mmHg 57%
    17:00 +23°C° 0 mm 4 mps 761 mmHg 64%
    18:00 +22°C° 0 mm 4 mps 761 mmHg 70%
    19:00 +20°C° 0 mm 4 mps 762 mmHg 76%
    20:00 +20°C° 0 mm 4 mps 762 mmHg 77%
    21:00 +19°C° 0 mm 4 mps 762 mmHg 78%
    22:00 +19°C° 0 mm 4 mps 763 mmHg 79%
    23:00 +18°C° 0.1 mm 3 mps 762 mmHg 80%

    Day after tomorrow, 20 November, Monday

    Time Temperature Precipitation Wind Pressure Humidity
    00:00 +18°C° 0.1 mm 3 mps 762 mmHg 82%
    01:00 +18°C° 0.1 mm 3 mps 761 mmHg 83%
    02:00 +17°C° 0.3 mm 3 mps 761 mmHg 85%
    03:00 +17°C° 0.3 mm 3 mps 761 mmHg 87%
    04:00 +17°C° 0.3 mm 3 mps 761 mmHg 89%
    05:00 +18°C° 0.4 mm 4 mps 762 mmHg 84%
    06:00 +20°C° 0.4 mm 4 mps 762 mmHg 79%
    07:00 +21°C° 0.4 mm 5 mps 763 mmHg 74%
    08:00 +23°C° 0.1 mm 5 mps 763 mmHg 65%
    09:00 +25°C° 0.1 mm 5 mps 763 mmHg 57%
    10:00 +27°C° 0.1 mm 5 mps 763 mmHg 48%
    11:00 +27°C° 0 mm 5 mps 762 mmHg 45%
    12:00 +28°C° 0 mm 6 mps 762 mmHg 42%
    13:00 +29°C° 0 mm 6 mps 761 mmHg 39%
    14:00 +28°C° 0 mm 6 mps 761 mmHg 43%
    15:00 +27°C° 0 mm 6 mps 761 mmHg 46%
    16:00 +27°C° 0 mm 6 mps 761 mmHg 49%
    17:00 +25°C° 0.3 mm 5 mps 761 mmHg 58%
    18:00 +22°C° 0.3 mm 4 mps 762 mmHg 67%
    19:00 +20°C° 0.3 mm 4 mps 762 mmHg 76%
    20:00 +20°C° 0.4 mm 4 mps 763 mmHg 80%
    21:00 +19°C° 0.4 mm 4 mps 763 mmHg 83%
    22:00 +19°C° 0.4 mm 4 mps 763 mmHg 87%
    23:00 +18°C° 0.1 mm 4 mps 763 mmHg 87%

    21 November, Tuesday

    Time Temperature Precipitation Wind Pressure Humidity
    00:00 +18°C° 0.1 mm 4 mps 762 mmHg 88%
    01:00 +18°C° 0.1 mm 3 mps 762 mmHg 89%
    02:00 +18°C° 0.2 mm 4 mps 762 mmHg 89%
    03:00 +17°C° 0.2 mm 4 mps 762 mmHg 89%
    04:00 +17°C° 0.2 mm 4 mps 762 mmHg 90%
    05:00 +18°C° 0.3 mm 4 mps 762 mmHg 86%
    06:00 +19°C° 0.3 mm 4 mps 762 mmHg 83%
    07:00 +20°C° 0.3 mm 4 mps 763 mmHg 80%
    08:00 +22°C° 0.5 mm 4 mps 763 mmHg 73%
    09:00 +23°C° 0.5 mm 4 mps 762 mmHg 67%
    10:00 +25°C° 0.5 mm 5 mps 762 mmHg 61%
    11:00 +26°C° 0.3 mm 5 mps 762 mmHg 56%
    12:00 +27°C° 0.3 mm 5 mps 761 mmHg 50%
    13:00 +28°C° 0.3 mm 5 mps 761 mmHg 45%
    14:00 +28°C° 0 mm 5 mps 761 mmHg 46%
    15:00 +27°C° 0 mm 6 mps 760 mmHg 46%
    16:00 +27°C° 0 mm 6 mps 760 mmHg 47%
    17:00 +25°C° 0.1 mm 5 mps 761 mmHg 54%
    18:00 +23°C° 0.1 mm 5 mps 761 mmHg 61%
    19:00 +21°C° 0.1 mm 5 mps 762 mmHg 69%
    20:00 +20°C° 0.1 mm 4 mps 762 mmHg 72%
    21:00 +20°C° 0.1 mm 4 mps 762 mmHg 76%
    22:00 +19°C° 0.1 mm 4 mps 762 mmHg 79%
    23:00 +18°C° 0.1 mm 4 mps 762 mmHg 81%

    22 November, Wednesday

    Time Temperature Precipitation Wind Pressure Humidity
    00:00 +18°C° 0.1 mm 4 mps 761 mmHg 83%
    01:00 +18°C° 0.1 mm 3 mps 760 mmHg 85%
    02:00 +17°C° 0.2 mm 3 mps 760 mmHg 86%
    03:00 +17°C° 0.2 mm 3 mps 760 mmHg 87%
    04:00 +17°C° 0.2 mm 3 mps 760 mmHg 88%
    05:00 +18°C° 0.2 mm 4 mps 760 mmHg 82%
    06:00 +20°C° 0.2 mm 4 mps 761 mmHg 77%
    07:00 +21°C° 0.2 mm 4 mps 761 mmHg 71%
    08:00 +22°C° 0.4 mm 4 mps 761 mmHg 65%
    09:00 +25°C° 0.4 mm 4 mps 761 mmHg 59%
    10:00 +26°C° 0.4 mm 4 mps 760 mmHg 53%
    11:00 +26°C° 0.5 mm 4 mps 760 mmHg 53%
    12:00 +27°C° 0.5 mm 4 mps 760 mmHg 53%
    13:00 +27°C° 0.5 mm 4 mps 759 mmHg 53%
    14:00 +26°C° 0.2 mm 5 mps 759 mmHg 54%
    15:00 +26°C° 0.2 mm 5 mps 759 mmHg 55%
    16:00 +26°C° 0.2 mm 5 mps 759 mmHg 55%
    17:00 +25°C° 0.1 mm 4 mps 759 mmHg 62%
    18:00 +22°C° 0.1 mm 4 mps 760 mmHg 69%
    19:00 +21°C° 0.1 mm 4 mps 760 mmHg 75%
    20:00 +20°C° 0 mm 3 mps 760 mmHg 78%
    21:00 +19°C° 0 mm 3 mps 761 mmHg 81%
    22:00 +19°C° 0 mm 3 mps 761 mmHg 83%
    23:00 +19°C° 0 mm 3 mps 760 mmHg 85%

    23 November, Thursday

    Time Temperature Precipitation Wind Pressure Humidity
    00:00 +18°C° 0 mm 3 mps 760 mmHg 86%
    01:00 +18°C° 0 mm 3 mps 759 mmHg 87%
    02:00 +18°C° 0 mm 3 mps 759 mmHg 88%
    03:00 +17°C° 0 mm 3 mps 759 mmHg 89%
    04:00 +17°C° 0 mm 3 mps 759 mmHg 90%
    05:00 +18°C° 0 mm 3 mps 760 mmHg 85%
    06:00 +20°C° 0 mm 3 mps 760 mmHg 80%
    07:00 +21°C° 0 mm 4 mps 761 mmHg 75%
    08:00 +23°C° 0 mm 4 mps 760 mmHg 66%
    09:00 +26°C° 0 mm 4 mps 760 mmHg 57%
    10:00 +28°C° 0 mm 4 mps 760 mmHg 48%
    11:00 +28°C° 0.1 mm 4 mps 760 mmHg 47%
    12:00 +29°C° 0.1 mm 4 mps 759 mmHg 46%
    13:00 +29°C° 0.1 mm 4 mps 759 mmHg 45%
    14:00 +29°C° 0 mm 4 mps 759 mmHg 46%
    15:00 +28°C° 0 mm 4 mps 759 mmHg 48%
    16:00 +28°C° 0 mm 4 mps 759 mmHg 49%
    17:00 +26°C° 0 mm 4 mps 759 mmHg 57%
    18:00 +25°C° 0 mm 3 mps 760 mmHg 65%
    19:00 +22°C° 0 mm 3 mps 760 mmHg 73%
    20:00 +21°C° 0 mm 3 mps 761 mmHg 76%
    21:00 +21°C° 0 mm 2 mps 761 mmHg 80%
    22:00 +20°C° 0 mm 2 mps 761 mmHg 84%
    23:00 +19°C° 0 mm 2 mps 761 mmHg 85%
    Show more